Hovedside
METAR-TAF:

METAR-TAF

Lufthavner :

Dakar, Senegal

Léopold Sédar Senghor internasjonale lufthavn

breddegrad: 14-44N, lengdegrad: 017-30W, høyde over havet: 27 m

Gjeldene værobservasjon

Denne rapporten ble laget for 27 minutter siden, klokken 19:00 UTC
Vind 9 kt fra Nord-nordøst
Temperatur 19°C
Luftfuktighet 73%
Trykk 1014 hPa
Sikt: 6000 m

METAR: GOOY 181900Z 02009KT 6000 NSC 19/14 Q1014

Tid: 19:27 (19:27 UTC)

Varsel

Denne rapporten ble laget for 1 time og 57 minutter siden, klokken 17:30 UTC
Varsel gyldig fra 18. klokken 18 UTC til 19. klokken 24 UTC
Vind 13 kt fra Nord-nordøst
Sikt: 6000 m

TAF: GOOY 181730Z 1818/1924 02013KT 6000 NSC

Værobservasjoner og værvarsel for over 4000 flyplasser (METAR- og TAF-rapporter).

Tilgjengelige stasjoner er representert av de røde og gule prikkene på kartet.

Hold musepekeren over prikken for å se navnet på stasjonen.

Klikk så for å se værobservasjoner og -varsler.

For å forandre kartet kan du klikke på den grønne knappen med svart kryss for å zoome inn, på den grønne knappen med strek for å zoome ut, eller på de grønne pilene for å se tilstøtende kart.


METAR-TAF: